Cloud_Cover
4 2 1 5 0 0 0 0 0 0 0 0 0 0 0 0 0 0 0 0 0 0 0 0 0 0 4 0 0 0 0 0 0 0 0 0 0 0 0 0 0 0 32 41 17 99 58
0 0 0 1 0 0 0 0 0 0 0 0 0 0 0 0 0 0 0 0 0 0 0 0 0 0 0 0 0 0 0 0 0 0 0 0 0 0 0 0 0 0 6 85 18 100 100
0 2 0 0 0 0 0 0 0 0 0 0 0 0 0 0 0 0 0 0 0 0 0 0 0 1 0 0 0 0 0 0 0 0 0 0 0 0 0 0 0 0 3 6 8 70 84
0 1 0 0 0 0 0 0 0 0 0 0 0 0 0 0 0 0 0 0 0 0 0 0 0 0 0 0 0 0 0 0 0 0 0 0 0 0 0 0 0 0 0 5 7 88 20
5 3 0 0 0 0 0 0 0 0 0 0 0 0 0 0 0 0 0 0 0 0 0 0 0 0 0 0 0 0 0 0 0 0 0 0 0 0 0 0 0 0 0 0 5 5 23
0 2 0 0 0 0 0 0 0 0 0 0 0 0 0 0 0 0 0 0 0 10 0 0 0 0 0 0 0 0 0 0 0 0 0 0 0 0 0 0 0 0 0 0 5 5 7
1 0 1 1 0 0 0 0 0 0 0 0 0 0 0 0 0 0 5 0 0 0 0 0 0 0 0 0 0 0 0 0 0 0 0 0 0 0 0 0 0 0 0 0 5 84 100
0 3 0 0 0 0 0 0 0 0 0 0 0 0 0 0 0 0 0 0 0 0 0 0 0 0 0 0 0 0 0 0 0 0 0 0 0 0 0 0 0 0 0 0 5 99 11
0 0 0 2 0 0 0 0 0 0 0 0 0 0 0 0 0 1 0 0 0 0 0 0 0 0 0 0 0 0 0 0 0 0 0 0 0 0 0 0 0 0 0 0 18 5 5
91 8 0 2 0 0 0 0 0 0 0 0 0 0 0 19 7 0 0 0 0 0 0 0 0 0 0 0 0 0 0 0 0 0 0 0 0 0 0 0 0 0 0 0 0 5 6
100 72 60 15 0 0 1 5 0 0 0 0 0 0 0 12 0 0 0 0 0 0 0 0 0 0 0 0 0 0 0 0 0 0 0 0 0 0 0 0 0 0 0 0 0 4 51
100 59 97 2 5 4 5 5 0 0 0 0 0 0 8 27 0 0 0 0 0 0 0 0 0 0 0 0 0 0 0 0 0 0 0 0 0 0 0 0 0 0 0 0 0 0 25
39 25 98 6 5 1 0 0 0 0 0 0 0 0 15 0 0 0 0 0 0 0 0 0 0 0 0 0 0 0 0 0 0 0 0 0 0 0 0 0 0 0 0 0 0 0 0
85 97 97 27 5 0 0 0 0 0 0 0 0 36 0 0 0 0 0 0 0 0 0 0 0 0 0 0 0 0 0 0 0 0 0 0 0 0 0 0 0 0 0 0 0 0 0
99 27 4 0 0 0 0 0 0 0 0 0 14 0 0 0 0 0 0 0 0 0 0 0 0 0 0 0 0 0 0 0 0 0 0 0 0 0 0 0 0 0 0 0 2 5 0
14 0 0 0 0 0 3 81 90 0 0 0 0 0 0 0 0 0 0 0 0 0 0 0 0 0 0 3 0 0 0 0 0 0 0 0 0 0 0 0 0 0 0 21 1 20 0
1 1 0 0 15 67 97 100 100 23 0 0 0 0 0 0 0 0 4 4 0 0 0 0 0 4 3 5 5 5 4 2 0 0 0 0 0 0 0 0 0 0 0 28 52 1 0
0 5 0 100 100 98 100 100 100 33 0 0 0 0 0 0 5 0 5 3 0 5 5 4 4 5 14 59 84 91 86 5 0 0 0 2 0 0 0 0 0 0 0 0 7 6 0
100 48 100 100 100 100 100 100 95 0 0 0 0 0 0 0 46 64 9 12 5 23 81 92 92 87 96 99 100 100 100 36 5 0 2 5 0 0 0 0 0 0 0 0 1 18 77
13 100 100 100 100 100 100 97 13 0 0 6 4 30 26 16 26 14 12 10 58 5 66 63 76 99 100 100 100 100 100 100 90 49 4 5 0 0 0 0 6 0 0 0 5 4 0
71 100 100 100 100 100 100 39 0 0 5 40 100 29 26 64 78 99 91 67 67 74 78 71 80 100 100 93 100 100 100 100 100 100 100 58 18 5 1 0 0 0 0 0 4 5 1
100 100 100 100 100 64 82 65 23 5 72 93 99 96 100 100 91 45 16 45 88 98 98 87 86 85 50 94 100 100 100 100 100 100 100 100 55 100 33 5 1 0 0 0 0 5 0
41 87 100 100 100 100 100 100 100 11 38 99 100 100 100 100 72 92 83 100 98 100 100 100 100 100 100 93 58 93 94 68 95 82 100 94 88 98 11 8 0 1 0 0 0 0 0
1 100 100 100 100 100 100 100 100 88 100 100 100 100 100 66 76 98 93 100 98 100 84 88 100 97 77 85 100 89 80 64 98 100 100 94 100 98 5 37 97 0 0 0 0 0 0
28 100 100 100 100 98 100 100 100 90 100 100 88 100 96 99 100 100 100 100 98 90 100 72 100 100 100 98 100 100 100 93 100 100 100 99 100 86 100 7 2 0 0 1 0 0 0
100 100 100 100 100 40 56 9 26 97 100 100 100 100 100 99 37 74 100 100 100 100 77 99 100 100 100 100 100 100 100 100 67 100 100 99 92 96 100 95 65 11 38 74 82 25 18
100 100 100 100 27 31 98 8 90 100 100 100 100 100 99 91 80 97 96 100 100 100 100 90 99 100 100 100 100 100 100 100 100 100 100 88 100 97 57 96 74 100 100 100 100 26 30
100 100 100 98 0 66 53 5 76 100 100 100 100 100 100 88 99 66 95 99 100 100 100 82 90 99 100 100 100 100 100 100 100 100 100 100 100 100 100 100 100 100 100 100 100 86 95
100 100 100 100 17 10 40 5 5 96 99 100 100 100 75 100 63 91 62 56 82 92 100 99 100 100 100 100 100 100 100 100 100 100 100 100 100 100 100 100 100 100 100 100 100 100 100